Tracking 26325 objects as of 28-Nov-2022
HD Live streaming from Space Station
objects crossing your sky now

ARIANE 5 R/B

Track ARIANE 5 R/B now!


NORAD ID: 41593
Int'l Code: 2016-039C
Perigee: 274.3 km
Apogee: 34,778.6 km
Inclination: 5.8 °
Period: 612.8 minutes
Semi major axis: 23897 km
RCS: Unknown
Launch date: June 18, 2016
Source: France (FR)
Launch site: FRENCH GUIANA (FRGUI)

Note: This is a ROCKET BODY
aabbcc
Your satellite tracking list
Your tracking list is empty




NASA's NSSDC Master Catalog

Two Line Element Set (TLE):
1 41593U 16039C   22331.23674118  .00001045  00000-0  43028-3 0  9994
2 41593   5.7699 143.1986 7219234 341.7868   1.9575  2.35004024 54474
Source of the keplerian elements: AFSPC